TimeCDT,TemperatureF,Dew PointF,Humidity,Sea Level PressureIn,VisibilityMPH,Wind Direction,Wind SpeedMPH,Gust SpeedMPH,PrecipitationIn,Events,Conditions,WindDirDegrees,DateUTC
12:53 AM,50.0,37.0,61,30.22,10.0,SSW,4.6,-,N/A,,Clear,200,2013-05-12 05:53:00
1:53 AM,50.0,37.9,63,30.21,10.0,South,5.8,-,N/A,,Clear,180,2013-05-12 06:53:00
2:53 AM,48.9,39.0,69,30.20,10.0,South,4.6,-,N/A,,Clear,190,2013-05-12 07:53:00
3:53 AM,46.0,39.0,76,30.19,10.0,West,4.6,-,N/A,,Clear,260,2013-05-12 08:53:00
4:53 AM,45.0,37.9,76,30.19,10.0,SW,4.6,-,N/A,,Clear,220,2013-05-12 09:53:00
5:53 AM,44.1,37.9,79,30.17,10.0,Calm,Calm,-,N/A,,Clear,0,2013-05-12 10:53:00
6:53 AM,45.0,39.0,80,30.17,10.0,South,4.6,-,N/A,,Clear,180,2013-05-12 11:53:00
7:53 AM,50.0,42.1,74,30.15,10.0,South,6.9,-,N/A,,Clear,190,2013-05-12 12:53:00
8:53 AM,59.0,45.0,60,30.14,10.0,SSW,16.1,-,N/A,,Clear,210,2013-05-12 13:53:00
9:53 AM,66.9,45.0,45,30.10,10.0,SW,20.7,32.2,N/A,,Clear,220,2013-05-12 14:53:00
10:53 AM,73.9,43.0,33,30.07,10.0,SW,21.9,-,N/A,,Clear,230,2013-05-12 15:53:00
11:53 AM,79.0,39.9,25,30.04,10.0,SW,19.6,27.6,N/A,,Clear,230,2013-05-12 16:53:00
12:53 PM,82.9,37.0,19,30.01,10.0,SSW,13.8,24.2,N/A,,Clear,210,2013-05-12 17:53:00
1:53 PM,82.0,35.1,18,29.99,10.0,WSW,12.7,21.9,N/A,,Scattered Clouds,240,2013-05-12 18:53:00
2:53 PM,82.9,34.0,17,29.97,10.0,West,9.2,24.2,N/A,,Mostly Cloudy,260,2013-05-12 19:53:00
3:53 PM,86.0,32.0,14,29.95,10.0,SSW,12.7,18.4,N/A,,Partly Cloudy,210,2013-05-12 20:53:00
4:53 PM,84.9,30.0,14,29.94,10.0,Calm,Calm,-,N/A,,Partly Cloudy,0,2013-05-12 21:53:00
5:53 PM,84.0,34.0,17,29.94,10.0,Calm,Calm,-,N/A,,Mostly Cloudy,0,2013-05-12 22:53:00
6:53 PM,86.0,28.0,12,29.92,10.0,NNE,10.4,-,N/A,,Clear,30,2013-05-12 23:53:00
7:53 PM,82.9,27.0,13,29.92,10.0,North,9.2,-,N/A,,Clear,350,2013-05-13 00:53:00
8:53 PM,73.9,32.0,21,29.93,10.0,NNW,3.5,-,N/A,,Clear,340,2013-05-13 01:53:00
9:53 PM,70.0,33.1,26,29.96,10.0,NE,4.6,-,N/A,,Clear,40,2013-05-13 02:53:00
10:53 PM,66.9,33.1,28,29.98,10.0,South,4.6,-,N/A,,Clear,170,2013-05-13 03:53:00
11:53 PM,64.9,34.0,32,29.97,10.0,South,3.5,-,N/A,,Clear,190,2013-05-13 04:53:00